Maun, Botswana

10:08 PM CAT on June 28, 2017 (GMT +0200)
Maun

Weather History for FBMN - May, 2013

Change the Weather History Date:

Thursday, May 9, 2013

  Actual Average Record
Temperature  
Mean Temperature 65 °F -  
Max Temperature 84 °F 80 °F 93 °F (1998)
Min Temperature 46 °F 52 °F 37 °F (1998)
Growing Degree Days 15 (Base 50)    
Moisture  
Dew Point 40 °F    
Average Humidity 41    
Maximum Humidity 66    
Minimum Humidity 12    
Precipitation  
Precipitation 0.00 in - - ()
Sea Level Pressure  
Sea Level Pressure 30.09 in    
Wind  
Wind Speed 3 mph ()    
Max Wind Speed 10 mph    
Max Gust Speed -    
Visibility 6.0 miles    
Events      
Averages and records for this station are not official NWS values.
T = Trace of Precipitation, MM = Missing Value Source: Averaged Metar Reports

Daily Weather History Graph

Daily Weather History Graph

Search for Another Location

Airport or City:

Trip Planner

Search our weather history database for the weather conditions in past years. The results will help you decide how hot, cold, wet, or windy it might be!

Date:

Astronomy

May. 09, 2013 Rise Set
Actual Time 6:45 AM CAT 6:00 PM CAT
Civil Twilight 6:22 AM CAT 6:23 PM CAT
Nautical Twilight 5:55 AM CAT 6:49 PM CAT
Astronomical Twilight 5:29 AM CAT 7:15 PM CAT
Moon 6:07 AM CAT (5/9) 5:40 PM CAT (5/9)
Length of Visible Light 12h 01m
Length of Day
11h 14m
Waning Crescent, 0% of the Moon is Illuminated
May 9
Waning Crescent
May 10
New
May 18
First Quarter
May 25
Full
May 31
Last Quarter

Hourly Weather History & Observations

Time (CAT) Temp. Dew Point Humidity Pressure Visibility Wind Dir Wind Speed Gust Speed Precip Events Conditions
12:00 AM 60.8 °F 41.0 °F 48% 30.15 in - Variable 1.2 mph - N/A   Clear
1:00 AM 57.2 °F 44.6 °F 63% 30.12 in - Calm Calm - N/A   Clear
2:00 AM 55.4 °F 41.0 °F 58% 30.09 in - Variable 1.2 mph - N/A   Clear
3:00 AM 55.4 °F 41.0 °F 58% 30.09 in - Calm Calm - N/A   Clear
4:00 AM 51.8 °F 39.2 °F 62% 30.09 in - Variable 1.2 mph - N/A   Clear
5:00 AM 50.0 °F 37.4 °F 62% 30.09 in - Variable 2.3 mph - N/A   Clear
6:00 AM 48.2 °F 37.4 °F 66% 30.09 in - Calm Calm - N/A   Clear
7:00 AM 48.2 °F 37.4 °F 66% 30.12 in - Variable 1.2 mph - N/A   Clear
8:00 AM 54 °F 40 °F 47%  in 6 mi NE 3.5 mph - -   Partly Cloudy
8:00 AM 53.6 °F 39.2 °F 58% 30.12 in - Variable 2.3 mph - N/A   Clear
9:00 AM 64.4 °F 41.0 °F 42% 30.15 in - ENE 3.5 mph - N/A   Clear
11:00 AM 77.0 °F 42.8 °F 29% 30.15 in - ESE 6.9 mph - N/A   Clear
12:00 PM 78.8 °F 39.2 °F 24% 30.12 in - South 6.9 mph - N/A   Clear
1:00 PM 80.6 °F 37.4 °F 21% 30.09 in - SE 9.2 mph - N/A   Clear
2:00 PM 82 °F 39 °F 12%  in 6 mi South 3.5 mph - -   Partly Cloudy
2:00 PM 82.4 °F 39.2 °F 21% 30.06 in - South 3.5 mph - N/A   Clear
3:00 PM 84.2 °F 37.4 °F 19% 30.04 in - South 9.2 mph - N/A   Clear
4:00 PM 84.2 °F 35.6 °F 18% 30.01 in - South 10.4 mph - N/A   Clear
5:00 PM 84.2 °F 37.4 °F 19% 30.04 in - SE 5.8 mph - N/A   Clear
6:00 PM 78.8 °F 42.8 °F 28% 30.04 in - SE 3.5 mph - N/A   Clear
7:00 PM 71.6 °F 44.6 °F 38% 30.04 in - Variable 3.5 mph - N/A   Clear
10:00 PM 62.6 °F 39.2 °F 42% 30.09 in - NNE 4.6 mph - N/A   Clear
11:00 PM 60.8 °F 39.2 °F 45% 30.09 in - Variable 2.3 mph - N/A   Clear